220  
ASUS41 KBTV 271130  
RWRBTV  
VERMONT REGIONAL WEATHER ROUNDUP  
NATIONAL WEATHER SERVICE BURLINGTON VT  
600 AM EST THU FEB 27 2020  
 
NOTE: "FAIR" INDICATES FEW OR NO CLOUDS BELOW 12,000 FEET WITH NO  
SIGNIFICANT WEATHER AND/OR S TO VISIBILITY
.  
 
* THESE REPORTS ARE NOT UNDER NWS QUALITY CONTROL AND/OR DO NOT  
REPORT WEATHER SUCH AS PRECIPITATION AND FOG.
 
 
VTZ001>019-271200-  
_____VERMONT_____  
 
 
CITY SKY/WX TMP DP RH WIND PRES REMARKS
 
BURLINGTON LGT RAIN 40 33 76 SE21G30 29.35F WCI 30  
MONTPELIER LGT RAIN 36 33 89 E3 29.43F  
MORRISVILLE LGT RAIN 39 34 82 VRB5 29.42F  
ST. JOHNSBURY* N/A 41 33 73 MISG 29.43F  
LYNDONVILLE* LGT SNOW 37 33 84 NE14G24 29.43F WCI 29  
MIDDLEBURY* HVY RAIN 38 34 83 E9G22 29.28F  
RUTLAND* MIX PCPN 37 36 96 SE17G24 29.30F WCI 27  
SPRINGFIELD LGT RAIN 37 34 89 NE7 29.36F WCI 32  
HIGHGATE* DRIZZLE 44 36 74 E6G20 29.35F  
NEWPORT* CLOUDY 38 33 82 E22G32 29.44F WCI 27  
BENNINGTON RAIN 42 35 76 S13G26 29.23F  
ISLAND POND* N/A 36 N/A N/A E15 N/A WCI 26  
GALLUP MILLS* N/A 37 N/A N/A MISG N/A  
LAKE EDEN* N/A 37 N/A N/A N3 N/A  
MT. MANSFIELD* N/A 30 N/A N/A SE25 N/A WCI 16  
 
_____LAKE CHAMPLAIN_____  
 
 
CITY SKY/WX TMP DP RH WIND PRES REMARKS
 
BURTON ISLAND* N/A 34 32 93 W2 N/A  
COLCHESTER RF* N/A 36 34 93 SW1 N/A  
DIAMOND ISL* N/A 41 37 87 SW8 N/A  
 

 
 
NYZ007-026>031-035-052-083-087-271200-  
_____NORTHERN NEW YORK_____  
 
 
CITY SKY/WX TMP DP RH WIND PRES REMARKS
 
PLATTSBURGH RAIN 32 32 100 W3 29.33F FOG  
SARANAC LAKE MIX PCPN 37 32 82 E9G18 29.23F WCI 30  
MASSENA RAIN 36 32 85 NE12 29.33F FOG WCI 28  
OGDENSBURG* LGT RAIN 34 34 100 E6 29.28F WCI 29  
POTSDAM* CLOUDY 34 34 100 N3 29.28F  
WATERTOWN SNOW 33 31 92 SW16G24 29.34S VSB 1/2 WCI 23  
FT DRUM LGT SNOW 32 30 93 SW10G21 29.30S FOG WCI 24  
ALBANY LGT RAIN 40 36 86 W14 29.26F  
GLENS FALLS LGT RAIN 39 35 86 NE12 29.25F WCI 32  
 

 
NHZ002-005-011-271200-  
_____NEW HAMPSHIRE_____  
 
 
CITY SKY/WX TMP DP RH WIND PRES REMARKS
 
LEBANON LGT RAIN 39 34 82 NE9G23 29.38F  
KEENE RAIN 39 37 93 E10G29 29.27F  
MT WASHINGTON SNOW 23 23 100 E93G109 N/A VSB 0 WCI -2  
PLYMOUTH RAIN 37 35 92 E7 29.44F WCI 31  
WHITEFIELD LGT RAIN 37 32 82 E14G24 29.46F WCI 28  
 

 
 
_____REGIONAL QUEBEC LOCATIONS_____  
 
 
CITY SKY/WX TMP DP RH WIND PRES REMARKS
 
MONTREAL LGT RAIN 34 30 86 NE20G25 29.40F WCI 22  
QUEBEC CITY CLOUDY 30 23 74 E32G46 29.73S WCI 15  
SHERBROOKE CLOUDY 39 32 75 E13G22 29.50F WCI 32  
 
_____REGIONAL ONTARIO LOCATIONS_____  
 
 
CITY SKY/WX TMP DP RH WIND PRES REMARKS
 
OTTAWA SNOW 32 32 100 E16G24 29.32F VSB 1/2 WCI 21  
 
______KEY______  
VSB - VISIBILITY IN MILES  
WCI - WIND CHILL INDEX  
HX - HEAT INDEX  

 
NNNN  
 
 
CLICK HERE TO GO TO PREVIOUS BULLETINS.

The Nexlab VT Page
The Nexlab NY Page Main Text Page